Date String (YYYY-MM-DD hh:mm:ss) UTC,Instrument flags,Ambient pressure (hPa),Sample flow (lpm),Bypass flow (lpm),Sample temperature (°C),Ambient temperature (°C),ASC tube jacket temperature (°C),LED temperature (°C),Box temperature (°C),Sample RH (%),Span deviation,Mass concentration (μg/m³),Mass concentration (μg/m³),Mass concentration (μg/m³)
DateTimeUTC,F1_M11,P_M11,Q1_M11,Q2_M11,T1_M11,T2_M11,T3_M11,T4_M11,T5_M11,U1_M11,ZSPAN_M11,X0_M11,X2_M11,X1_M11
2021-12-16 10:00:00,,0820.3,4.99,0.00,22.3,22.1,00.0,31.3,23.9,06.7,0000.0,0001.17,0000.47,0000.19
2021-12-16 10:01:00,,0820.2,5.01,0.00,22.2,21.9,00.0,31.3,23.7,06.7,0000.0,0001.07,0000.44,0000.19
2021-12-16 10:02:00,,0820.3,5.00,0.00,22.2,21.6,00.0,31.3,23.6,06.7,0000.0,0001.15,0000.45,0000.19
2021-12-16 10:03:00,,0820.2,5.01,0.00,22.1,21.4,00.0,31.3,23.5,06.7,0000.0,0001.08,0000.43,0000.19
2021-12-16 10:04:00,,0820.6,4.99,0.00,22.0,21.3,00.0,31.2,23.4,06.7,0000.0,0001.39,0000.42,0000.20
2021-12-16 10:05:00,,0820.6,5.00,0.00,22.0,21.1,00.0,31.2,23.4,06.8,0000.0,0001.76,0000.44,0000.20
2021-12-16 10:06:00,,0820.8,4.99,0.00,21.9,21.3,00.0,31.2,23.4,07.0,0000.0,0001.95,0000.44,0000.20
2021-12-16 10:07:00,,0820.8,5.02,0.00,22.1,22.1,00.0,31.2,23.7,06.8,0000.0,0002.30,0000.49,0000.21
2021-12-16 10:08:00,,0820.7,4.99,0.00,22.2,23.0,00.0,31.2,24.0,06.7,0000.0,0002.52,0000.53,0000.22
2021-12-16 10:09:00,,0820.7,5.00,0.00,22.3,23.1,00.0,31.3,24.2,06.6,0000.0,0002.50,0000.51,0000.22
2021-12-16 10:10:00,,0820.7,5.02,0.00,22.4,22.8,00.0,31.3,24.2,06.6,0000.0,0002.56,0000.53,0000.22
2021-12-16 10:11:00,,0820.6,5.00,0.00,22.3,22.5,00.0,31.3,24.1,06.7,0000.0,0002.60,0000.54,0000.22
2021-12-16 10:12:00,,0820.7,4.99,0.00,22.3,22.2,00.0,31.3,24.0,06.7,0000.0,0002.57,0000.53,0000.22
2021-12-16 10:13:00,,0820.4,5.02,0.00,22.3,22.0,00.0,31.3,23.8,06.6,0000.0,0002.43,0000.50,0000.22
2021-12-16 10:14:00,,0820.2,5.00,0.00,22.2,21.7,00.0,31.2,23.7,06.6,0000.0,0002.37,0000.47,0000.21
2021-12-16 10:15:00,,0820.1,5.00,0.00,22.1,21.5,00.0,31.2,23.5,06.7,0000.0,0002.10,0000.47,0000.21
2021-12-16 10:16:00,,0820.2,5.01,0.00,22.0,21.3,00.0,31.2,23.4,06.8,0000.0,0001.89,0000.44,0000.21
2021-12-16 10:17:00,,0820.2,5.00,0.00,21.9,21.2,00.0,31.1,23.4,06.8,0000.0,0002.46,0000.41,0000.20
2021-12-16 10:18:00,,0820.5,5.00,0.00,21.9,21.1,00.0,31.1,23.4,06.8,0000.0,0002.26,0000.42,0000.20
2021-12-16 10:19:00,,0819.9,5.00,0.00,21.9,21.4,00.0,31.1,23.5,06.8,0000.0,0002.10,0000.40,0000.19
2021-12-16 10:20:00,,0819.8,5.01,0.00,22.0,22.3,00.0,31.1,23.8,06.8,0000.0,0002.17,0000.40,0000.19
2021-12-16 10:21:00,,0820.4,5.00,0.00,22.2,23.1,00.0,31.2,24.1,06.8,0000.0,0002.17,0000.39,0000.19
2021-12-16 10:22:00,,0819.8,5.00,0.00,22.4,23.5,00.0,31.2,24.3,06.7,0000.0,0002.40,0000.39,0000.19
2021-12-16 10:23:00,,0820.4,5.00,0.00,22.4,23.2,00.0,31.2,24.3,06.6,0000.0,0003.46,0000.41,0000.20
2021-12-16 10:24:00,,0820.5,5.00,0.00,22.4,22.8,00.0,31.3,24.1,06.6,0000.0,0003.60,0000.41,0000.20
2021-12-16 10:25:00,,0820.3,4.99,0.00,22.3,22.4,00.0,31.3,24.0,06.7,0000.0,0003.67,0000.43,0000.20
2021-12-16 10:26:00,,0820.4,5.01,0.00,22.3,22.1,00.0,31.3,23.9,06.7,0000.0,0003.61,0000.44,0000.19
2021-12-16 10:27:00,,0820.1,5.00,0.00,22.2,21.9,00.0,31.2,23.8,06.7,0000.0,0003.32,0000.43,0000.19
2021-12-16 10:28:00,,0820.2,5.01,0.00,22.2,21.6,00.0,31.2,23.6,06.8,0000.0,0002.62,0000.46,0000.19
2021-12-16 10:29:00,,0820.2,4.99,0.00,22.1,21.5,00.0,31.2,23.6,06.8,0000.0,0002.61,0000.42,0000.19
2021-12-16 10:30:00,,0820.2,5.00,0.00,22.0,21.4,00.0,31.2,23.5,06.8,0000.0,0003.10,0000.37,0000.18
2021-12-16 10:31:00,,0820.2,5.00,0.00,22.0,21.3,00.0,31.2,23.5,06.8,0000.0,0004.04,0000.36,0000.18
2021-12-16 10:32:00,,0820.3,5.00,0.00,21.9,21.1,00.0,31.1,23.4,06.8,0000.0,0004.01,0000.37,0000.17
2021-12-16 10:33:00,,0820.6,5.00,0.00,21.9,21.4,00.0,31.1,23.5,06.8,0000.0,0003.88,0000.37,0000.17
2021-12-16 10:34:00,,0820.5,5.00,0.00,22.1,22.3,00.0,31.1,23.8,06.8,0000.0,0003.07,0000.40,0000.16
2021-12-16 10:35:00,,0820.4,4.99,0.00,22.2,23.1,00.0,31.2,24.1,06.8,0000.0,0002.88,0000.41,0000.16
2021-12-16 10:36:00,,0820.2,5.00,0.00,22.3,22.9,00.0,31.2,24.1,06.7,0000.0,0002.91,0000.43,0000.16
2021-12-16 10:37:00,,0820.2,4.99,0.00,22.3,22.6,00.0,31.2,24.0,06.7,0000.0,0002.94,0000.45,0000.17
2021-12-16 10:38:00,,0820.2,5.00,0.00,22.2,22.2,00.0,31.2,23.8,06.7,0000.0,0002.93,0000.46,0000.17
2021-12-16 10:39:00,,0820.1,4.99,0.00,22.1,21.9,00.0,31.2,23.7,06.8,0000.0,0002.87,0000.46,0000.18
2021-12-16 10:40:00,,0820.0,5.00,0.00,22.1,21.7,00.0,31.2,23.5,06.8,0000.0,0002.84,0000.49,0000.18
2021-12-16 10:41:00,,0820.0,4.99,0.00,22.0,21.5,00.0,31.2,23.5,06.8,0000.0,0003.57,0000.50,0000.19
2021-12-16 10:42:00,,0820.4,5.00,0.00,22.0,21.3,00.0,31.1,23.4,06.8,0000.0,0002.57,0000.51,0000.19
2021-12-16 10:43:00,,0820.7,5.00,0.00,21.9,21.2,00.0,31.1,23.3,06.8,0000.0,0002.56,0000.51,0000.20
2021-12-16 10:44:00,,0820.8,5.01,0.00,21.9,21.1,00.0,31.1,23.3,06.8,0000.0,0002.58,0000.52,0000.20
2021-12-16 10:45:00,,0820.8,4.99,0.00,21.8,21.0,00.0,31.0,23.2,06.8,0000.0,0002.44,0000.50,0000.19
2021-12-16 10:46:00,,0820.8,5.00,0.00,21.8,21.2,00.0,31.0,23.3,06.8,0000.0,0002.45,0000.51,0000.19
2021-12-16 10:47:00,,0820.8,5.00,0.00,21.9,22.0,00.0,31.0,23.6,06.8,0000.0,0002.46,0000.50,0000.18
2021-12-16 10:48:00,,0820.7,4.99,0.00,22.1,22.9,00.0,31.1,24.0,06.8,0000.0,0002.45,0000.49,0000.18
2021-12-16 10:49:00,,0820.7,5.01,0.00,22.2,23.0,00.0,31.1,24.1,06.7,0000.0,0002.37,0000.46,0000.19
2021-12-16 10:50:00,,0820.6,4.99,0.00,22.2,22.6,00.0,31.1,23.9,06.7,0000.0,0002.36,0000.45,0000.18
2021-12-16 10:51:00,,0820.7,5.01,0.00,22.1,22.2,00.0,31.1,23.8,06.7,0000.0,0002.44,0000.46,0000.17
2021-12-16 10:52:00,,0820.6,4.99,0.00,22.1,22.0,00.0,31.1,23.7,06.8,0000.0,0001.67,0000.47,0000.17
2021-12-16 10:53:00,,0820.7,5.00,0.00,22.0,21.8,00.0,31.1,23.6,06.8,0000.0,0001.19,0000.48,0000.17
2021-12-16 10:54:00,,0820.6,4.99,0.00,22.0,21.6,00.0,31.1,23.5,06.8,0000.0,0001.16,0000.48,0000.17
2021-12-16 10:55:00,,0820.6,4.99,0.00,21.9,21.3,00.0,31.0,23.4,06.8,0000.0,0001.19,0000.49,0000.16
2021-12-16 10:56:00,,0820.6,5.00,0.00,21.9,21.2,00.0,31.0,23.3,06.9,0000.0,0001.13,0000.46,0000.16
2021-12-16 10:57:00,,0820.6,5.01,0.00,21.8,21.0,00.0,31.0,23.2,07.0,0000.0,0001.05,0000.44,0000.16
2021-12-16 10:58:00,,0820.7,4.99,0.00,21.7,20.9,00.0,31.0,23.1,07.0,0000.0,0001.05,0000.44,0000.17
2021-12-16 10:59:00,,0820.6,5.01,0.00,21.7,21.2,00.0,30.9,23.2,07.0,0000.0,0001.07,0000.45,0000.17
